Regional Weather Roundup
Issued by NWS Grand Forks, ND

Home | Current Version | Previous Version | Text Only | Print | Product List | Glossary Off
Versions: 1 2 3 4 5 6 7 8 9 10 11 12 13 14 15 16 17 18 19 20 21 22 23 24 25 26 27 28 29 30 31 32 33 34 35 36 37 38 39 40 41 42 43 44 45 46 47 48 49 50

000
ASUS43 KFGF 271110
RWRFGF
PRAIRIE TO PINES  WEATHER ROUNDUP
NATIONAL WEATHER SERVICE EASTERN NORTH DAKOTA/GRAND FORKS ND
600 AM CDT SAT AUG 27 2016

 **SATELLITE DATA USED TO AUGMENT SKY COVER AT AUTOMATED STATIONS**
 *****  WEATHER ACROSS EASTERN NORTH DAKOTA  *****

CITY           SKY/WX    TMP DP  RH WIND       PRES   REMARKS
GRAND FORKS    CLOUDY    59  56  89 S8        29.95F
GRAND FRKS AFB CLOUDY    58  55  91 S5        29.95F
GRAND FRKS NWS   N/A     57 N/A N/A S7          N/A
DEVILS LAKE    CLOUDY    55  51  86 SE5       29.93F
FARGO          LGT RAIN  61  58  90 S6        29.98F
WAHPETON ARPT  CLOUDY    59  55  88 SE8       30.01S
$$

 ***** WEATHER ACROSS CENTRAL AND WESTERN NORTH DAKOTA  *****

CITY           SKY/WX    TMP DP  RH WIND       PRES   REMARKS
BISMARCK       PTCLDY    51  50  96 SE7       29.93F
MINOT          PTCLDY    56  53  90 SW7       29.89S
JAMESTOWN      CLOUDY    57  55  93 SE5       29.94F
MINOT AFB      PTCLDY    50  49  95 SW7       29.88F
GARRISON         N/A     56  54  93 W7        29.91R
WILLISTON      PTCLDY    46  42  86 CALM      29.91S
DICKINSON      CLOUDY    50  47  89 S10       29.92S
HETTINGER      PTCLDY    45  43  93 N3        29.97F
$$

 *****  OTHER AIRPORT OBSERVATIONS IN OUR AREA  *****

CITY           SKY/WX    TMP DP  RH WIND       PRES   REMARKS
WALHALLA       NOT AVBL
GRAFTON AIRPOR FAIR      54  54 100 MISG      29.96F
VALLEY CITY AR CLOUDY    59  59 100 S6        29.97F
CANDO          NOT AVBL
CAVALIER APRT  FAIR      50  50 100 S6        29.94S
GWINNER        PTSUNNY   61  59  94 SE5       29.98F
ROLLA          CLOUDY    55  55 100 SW7       29.91S
 ***** THE ABOVE OBSERVATIONS ARE NON NWS ARE NOT QUALITY
       CONTROLLED AND MAY MIS-REPORT RAIN FOR SNOW...
$$

  *****  WEATHER ACROSS NORTHERN MINNESOTA  *****

CITY           SKY/WX    TMP DP  RH WIND       PRES   REMARKS
FLAG ISLAND    PTCLDY    63  54  72 CALM      29.98S HAZE
WARROAD        CLOUDY    55  52  88 S5        30.00S
ROSEAU         PTCLDY    57  54  88 S8        29.99S
HALLOCK        CLEAR     54  52  94 S6        29.96S
THF RVR FALLS  LGT RAIN  58  55  90 SE10      30.00F
BAUDETTE       PTCLDY    55  52  89 S5        30.01F
WASKISH        LGT RAIN  57  55  94 CALM      30.04S
CROOKSTON      LGT RAIN  59  57  94 S6        29.99S
GREENBUSH NDAW   N/A     54  52  94 SE3         N/A
$$
  *****  WEATHER ACROSS CENTRAL AND WEST MINNESOTA  *****

CITY           SKY/WX    TMP DP  RH WIND       PRES   REMARKS
FOSSTON        RAIN      57  54  88 SE6       30.03S
BEMIDJI        CLOUDY    59  56  88 S3        30.05S
PARK RAPIDS    CLOUDY    60  55  83 SE6       30.05S
ELBOW LAKE     CLOUDY    60  57  92 E8        30.03S
WADENA         NOT AVBL
DETROIT LAKES  CLOUDY    61  57  88 S6        30.04S
MOORHEAD       LGT RAIN  61  57  88 SE7       30.00F
FERGUS FALLS   CLOUDY    61  57  88 SE7       30.04S
MORRIS MN      LGT RAIN  61  57  88 SE3       30.03R
STAPLES        CLOUDY    57  55  94 SE3       30.05S
$$
  *****  WEATHER ELSEWHERE ACROSS MINNESOTA  *****

CITY           SKY/WX    TMP DP  RH WIND       PRES   REMARKS
DULUTH         CLOUDY    58  54  86 CALM      30.09F
INTRNTL FALLS  CLOUDY    53  51  93 SE3       30.05S
ELY            CLOUDY    55  54  94 CALM      30.09F
CLOQUET        CLOUDY    55  54  94 CALM      30.09F
WHEATON        NOT AVBL
BRAINERD       LGT RAIN  59  56  89 CALM      30.07S
HIBBING        PTCLDY    51  51 100 CALM      30.09F
ALEXANDRIA     CLOUDY    59  57  93 SE6       30.06S
SAINT CLOUD    CLOUDY    58  58 100 CALM      30.06R
MINNEAPOLIS    CLOUDY    64  59  83 E9        30.05F
$$

  *****  WEATHER ACROSS SOUTH DAKOTA  *****

CITY           SKY/WX    TMP DP  RH WIND       PRES   REMARKS
SIOUX FALLS    LGT RAIN  61  60  97 N5        30.01S FOG
BROOKINGS      LGT RAIN  59  57  93 SE8       30.02R
WATERTOWN      CLOUDY    60  58  92 SE6       30.02S
HURON          CLEAR     57  56  96 S6        30.00R
SISSETON         N/A     59  58  96 SE9       29.98F
ABERDEEN       CLOUDY    59  57  93 S9        29.97F
MITCHELL       CLOUDY    63  62  97 S7        30.01S
PIERRE         PTCLDY    57  55  93 SE14      29.90F
MOBRIDGE       CLOUDY    57  53  86 CALM      29.92F
RAPID CITY     CLOUDY    53  51  93 CALM      30.00S
$$

  *****  SOME WEATHER IN NEARBY STATES *****

CITY           SKY/WX    TMP DP  RH WIND       PRES   REMARKS
GLASGOW MT     CLEAR     47  42  83 E9        29.88S
GREAT FALLS MT MOCLDY    59  35  40 S13       29.85F
CHEYENNE WY    CLOUDY    50  43  77 W9        30.14R
SCOTTSBLUFF NE FOG       54  53  97 SE9       30.05S VSB 1/4
OMAHA NE       CLOUDY    66  64  93 E3        29.99F FOG
DES MOINES IA  CLOUDY    64  62  93 NE5       29.99S
DAVENPORT IA   CLOUDY    68  67  96 SE5       30.01R FOG
CHICAGO IL     LGT RAIN  69  66  90 N3        30.08R
EAU CLAIRE WI  CLOUDY    60  58  92 SE5       30.09R
LA CROSSE WI   CLOUDY    64  60  87 CALM      30.07R
$$

  *****  SOME NATIONAL WEATHER *****

CITY           SKY/WX    TMP DP  RH WIND       PRES   REMARKS
LA GUARDIA NY  PTCLDY    77  61  57 N12       30.15R
RALEIGH NC     PTCLDY    75  72  90 SW5       30.11R
ATLANTA GA     PTCLDY    75  71  87 E3        30.09R
NEW ORLEANS LA CLOUDY    80  75  84 CALM      29.95F
OKLAHOMA CITY  MOCLDY    70  69  97 S6        30.02R
ALBUQUERQUE NM CLOUDY    62  48  60 SE6       30.18R
SALT LAKE CITY PTCLDY    64  35  34 SE5       30.03S
LOS ANGELES CA CLOUDY    66  57  72 S3        29.95F
BOISE ID       CLEAR     61  34  36 SE9       29.91S
SEATTLE WA     CLEAR     68  46  45 SW15      29.79S
$$

*** WEATHER ACROSS MANITOBA...SASKATCHEWAN AND ONTARIO ***
                ***ONTARIO***

CITY           SKY/WX    TMP DP  RH WIND       PRES   REMARKS
GERALDTON      MOCLDY    50  50 100 SE2       30.12R
THUNDER BAY    MOCLDY    48  48 100 W3        30.12S
SIOUX LOOKOUT  PTCLDY    57  54  88 S5        30.03R
TORONTO        PTCLDY    63  55  77 VRB2      30.22R
BIG TROUT LK   CLOUDY    57  55  94 S7        29.93S
PICKLE LAKE    MOCLDY    54  50  87 S8        30.00
DRYDEN         PTCLDY    59  54  82 S8        30.03R
KENORA         MOCLDY    61  50  67 SW8       30.00S
$$
                *** MANITOBA***

CITY           SKY/WX    TMP DP  RH WIND       PRES   REMARKS
BRANDON        PTCLDY    46  45  93 VRB2      29.87F
DAUPHIN        CLEAR     54  52  94 SW7       29.83R
ISLAND LAKE    CLOUDY    59  55  88 VRB6      29.86R
PILOT MOUND      N/A     52  50  93 S6          N/A
THE PAS        CLOUDY    55  55 100 NE2       29.79S
THOMPSON       MOCLDY    50  48  93 E2        29.84S
WINNIPEG       PTCLDY    54  50  87 S10       29.91S
LYNN LAKE      CLEAR     45  45 100 MISG      29.83S FOG
CHURCHILL      PTCLDY    43  43 100 S9        29.87S
GILLAM         CLOUDY    54  50  87 E5        29.88S
$$
                ***SASKATCHEWAN***

CITY           SKY/WX    TMP DP  RH WIND       PRES   REMARKS
ESTEVAN        PTCLDY    43  43 100 SW6       29.90R
KINDERSLEY     PTCLDY    50  46  87 SE8       29.76F
LLOYDMINSTER   MOCLDY    54  46  76 S13       29.71F
PRINCE ALBERT  NOT AVBL
REGINA         CLEAR     43  43 100 SE9       29.87S
YORKTON        CLOUDY    55  54  94 SW7       29.83F
N. BATTLEFORD  CLEAR     48  48 100 SE10      29.79F
LA RONGE       PTCLDY    43  41  93 S2        29.81S
SASKATOON      PTCLDY    46  46 100 SE2       29.83S
SWIFT CURRENT  CLEAR     45  43  93 S10       29.81F
$$
NOTE: THESE ARE AUTOMATED STATIONS WITH LIMITED QUALITY CONTROL
      "FAIR" INDICATES FEW OR NO CLOUDS BELOW 12,000 FEET WITH NO
      SIGNIFICANT WEATHER AND/OR OBSTRUCTIONS TO VISIBILITY.
      SKY/WX - SKY CONDITION AND SIGNIFICANT WEATHER.
      TMP - AIR TEMPERATURE.    DP   - DEWPOINT TEMPERATURE.
      RH  - RELATIVE HUMIDITY.  PRES - PRESSURE.
      HX  - HEAT INDEX.         WCI  - WIND CHILL INDEX.
$




USA.gov is the U.S. government's official web portal to all federal, state and local government web resources and services.